Location: Stoke Bliss
(52.2667°N, 2.5167°W)
Time: 01:17:24
(UTC+00:00)

SL-4 R/B - Pass Details

Date: 03 March 2021
Orbit: 428 x 663 km, 51.6° (Epoch: 11 April)

Event Time Altitude Azimuth Distance (km) Brightness Sun altitude
Rises 19:48:41 0° 281° (W) 2,478 7.1 -18.3°
Reaches altitude 10° 19:50:54 10° 276° (W) 1,576 5.6 -18.7°
Maximum altitude 19:54:19 51° 200° (SSW) 556 2.0 -19.2°
Enters shadow 19:54:43 48° 174° (S) 580 1.9 -19.2°
